M I D A S
Marine Information and Data Acquisition System
Tripno 273 of the Zeeleeuw from 2002-05-03 06:46:01 to 2002-05-03 16:02:10
Back to CruiseResearch ActivitiesStationsMapUnderway DataData graphs

EquipmentUnitsComment
TimeDGPSUTC
LatitudeDGPSDM.mWGS84
LongitudeDGPSDM.mWGS84
TemperatureSBE03/SBE38deg celciusITS90
ConductivitySBE21S/mITS90
SalinitySBE21 Practical Salinity Units
ChlorophylAChelsea fluorimeterg/lCalibrated in Aceton
Missing or incorrect values are displayed as -999
Sea surface data collected by the RV Zeeleeuw from 2002-05-03 06:46:01 to 2002-05-03 16:02:10
                                                                                    Next 1000 lines
Time Latitude Longitude Temperature Conductivity Salinity ChlorophylA
2002-05-03 06:46:11 51°13.691 2°55.869 22.856874 0.192667 1.13116  
2002-05-03 06:46:17 51°13.692 2°55.862 22.856874 0.192667 1.13116  
2002-05-03 06:46:21 51°13.692 2°55.857 23.082166 0.192667 1.131179  
2002-05-03 06:46:26 51°13.693 2°55.85 22.573647 0.192667 1.131179  
2002-05-03 06:46:31 51°13.694 2°55.844 23.870997 0.192667 1.131179  
2002-05-03 06:46:36 51°13.694 2°55.836 23.689746 0.192667 1.131179  
2002-05-03 06:46:41 51°13.695 2°55.829 22.352466 0.192667 1.131179  
2002-05-03 06:46:46 51°13.695 2°55.821 22.352466 0.192667 1.131179  
2002-05-03 06:46:51 51°13.696 2°55.813 22.77045 0.192667 1.13116  
2002-05-03 06:46:56 51°13.696 2°55.806 22.967105 0.192667 1.13116  
2002-05-03 06:47:02 51°13.697 2°55.797 22.614299 0.192667 1.131141  
2002-05-03 06:47:06 51°13.698 2°55.791 23.062362 0.192667 1.131122  
2002-05-03 06:47:10 51°13.698 2°55.786 23.127914 0.192667 1.131141  
2002-05-03 06:47:16 51°13.699 2°55.777 23.127914 0.192667 1.131141  
2002-05-03 06:47:21 51°13.699 2°55.77 22.938728 0.192667 1.131141  
2002-05-03 06:47:26 51°13.7 2°55.764 22.302695 0.192667 1.131141  
2002-05-03 06:47:30 51°13.701 2°55.76 21.106785 0.192667 1.131122  
2002-05-03 06:47:36 51°13.701 2°55.756 21.891576 0.192667 1.131102  
2002-05-03 06:47:40 51°13.702 2°55.756 21.465789 0.192667 1.131122  
2002-05-03 06:47:45 51°13.703 2°55.756 21.465789 0.192667 1.131122  
2002-05-03 06:47:50 51°13.703 2°55.758 20.421377 0.192667 1.131122  
2002-05-03 06:47:56 51°13.704 2°55.759 20.359325 0.192667 1.131102  
2002-05-03 06:48:00 51°13.704 2°55.76 21.569397 0.192667 1.131006  
2002-05-03 06:48:05 51°13.705 2°55.76 22.792047 0.192667 1.130929  
2002-05-03 06:48:10 51°13.705 2°55.76 23.209887 0.192667 1.130929  
2002-05-03 06:48:15 51°13.705 2°55.759 23.209887 0.192667 1.130929  
2002-05-03 06:48:20 51°13.705 2°55.756 22.731951 0.192667 1.130967  
2002-05-03 06:48:26 51°13.704 2°55.752 21.609715 0.192667 1.131025  
2002-05-03 06:48:30 51°13.703 2°55.749 23.313206 0.192667 1.131122  
2002-05-03 06:48:36 51°13.701 2°55.744 22.355519 0.192667 1.13116  
2002-05-03 06:48:41 51°13.7 2°55.741 23.726547 0.192667 1.131179  
2002-05-03 06:48:46 51°13.699 2°55.737 23.726547 0.192667 1.131179  
2002-05-03 06:48:51 51°13.699 2°55.735 21.455285 0.192667 1.131199  
2002-05-03 06:48:56 51°13.7 2°55.736 22.551555 0.192667 1.131122  
2002-05-03 06:49:01 51°13.701 2°55.737 22.196812 0.192667 1.131122  
2002-05-03 06:49:06 51°13.702 2°55.739 24.106601 0.192667 1.131179  
2002-05-03 06:49:11 51°13.704 2°55.74 23.291302 0.192667 1.131179  
2002-05-03 06:49:16 51°13.705 2°55.74 23.291302 0.192667 1.131179  
2002-05-03 06:49:21 51°13.706 2°55.74 22.049114 0.192667 1.13116  
2002-05-03 06:49:26 51°13.706 2°55.74 22.915506 0.192667 1.131102  
2002-05-03 06:49:31 51°13.705 2°55.739 23.203697 0.192667 1.131025  
2002-05-03 06:49:36 51°13.704 2°55.738 22.181 0.192667 1.131006  
2002-05-03 06:49:40 51°13.703 2°55.737 22.118936 0.192667 1.130986  
2002-05-03 06:49:46 51°13.7 2°55.736 22.118936 0.192667 1.130986  
2002-05-03 06:49:51 51°13.698 2°55.734 21.898273 0.192667 1.130986  
2002-05-03 06:49:56 51°13.696 2°55.733 21.544024 0.192667 1.131006  
2002-05-03 06:50:01 51°13.695 2°55.731 21.705333 0.192667 1.131025  
2002-05-03 06:50:06 51°13.692 2°55.73 21.545568 0.192667 1.131044  
2002-05-03 06:50:11 51°13.69 2°55.729 20.653324 0.192667 1.131064  
2002-05-03 06:50:16 51°13.688 2°55.727 20.653324 0.192667 1.131064  
2002-05-03 06:50:21 51°13.686 2°55.726 21.683327 0.192667 1.131064  
2002-05-03 06:50:26 51°13.685 2°55.725 21.067177 0.192667 1.131044  
2002-05-03 06:50:30 51°13.683 2°55.724 22.03846 0.192667 1.131044  
2002-05-03 06:50:36 51°13.683 2°55.723 21.623874 0.192667 1.131025  
2002-05-03 06:50:41 51°13.684 2°55.723 21.395998 0.192667 1.131006  
2002-05-03 06:50:45 51°13.685 2°55.723 21.395998 0.192667 1.131006  
2002-05-03 06:50:50 51°13.688 2°55.722 21.429633 0.192667 1.131006  
2002-05-03 06:50:55 51°13.691 2°55.722 21.36838 0.192667 1.131006  
2002-05-03 06:51:01 51°13.696 2°55.721 21.238438 0.192667 1.130967  
2002-05-03 06:51:05 51°13.7 2°55.72 22.278678 0.192667 1.130986  
2002-05-03 06:51:10 51°13.705 2°55.719 21.539035 0.192667 1.130986  
2002-05-03 06:51:16 51°13.712 2°55.717 21.539035 0.192667 1.130986  
2002-05-03 06:51:20 51°13.717 2°55.714 21.44355 0.192667 1.131025  
2002-05-03 06:51:25 51°13.724 2°55.711 22.026034 0.192667 1.131064  
2002-05-03 06:51:30 51°13.731 2°55.707 21.381674 0.192667 1.131064  
2002-05-03 06:51:35 51°13.738 2°55.703 21.610071 0.192667 1.131064  
2002-05-03 06:51:40 51°13.746 2°55.698 21.51476 0.192667 1.131025  
2002-05-03 06:51:45 51°13.754 2°55.694 21.51476 0.192667 1.131025  
2002-05-03 06:51:51 51°13.763 2°55.689 21.159269 0.192667 1.131025  
2002-05-03 06:51:56 51°13.771 2°55.684 21.359727 0.192667 1.131025  
2002-05-03 06:52:01 51°13.778 2°55.679 21.198864 0.192667 1.131044  
2002-05-03 06:52:06 51°13.786 2°55.673 22.2641 0.192667 1.131044  
2002-05-03 06:52:11 51°13.794 2°55.667 21.460914 0.192766 1.131674  
2002-05-03 06:52:15 51°13.8 2°55.662 21.460914 0.192766 1.131674  
2002-05-03 06:52:20 51°13.808 2°55.657 22.366361 0.192667 1.131064  
2002-05-03 06:52:25 51°13.817 2°55.65 21.40056 0.192766 1.131674  
2002-05-03 06:52:31 51°13.827 2°55.642 21.953602 0.192667 1.131044  
2002-05-03 06:52:36 51°13.836 2°55.635 21.823029 0.192667 1.131044  
2002-05-03 06:52:40 51°13.843 2°55.629 20.918272 0.192667 1.131025  
2002-05-03 06:52:46 51°13.854 2°55.621 20.918272 0.192667 1.131025  
2002-05-03 06:52:51 51°13.863 2°55.613 21.411151 0.192766 1.131616  
2002-05-03 06:52:56 51°13.872 2°55.606 21.54347 0.192766 1.131616  
2002-05-03 06:53:00 51°13.879 2°55.6 21.283196 0.192766 1.131635  
2002-05-03 06:53:05 51°13.889 2°55.593 21.90497 0.192766 1.131635  
2002-05-03 06:53:10 51°13.898 2°55.586 21.552061 0.192766 1.131654  
2002-05-03 06:53:16 51°13.909 2°55.577 21.552061 0.192766 1.131654  
2002-05-03 06:53:20 51°13.916 2°55.571 21.486673 0.192766 1.131654  
2002-05-03 06:53:26 51°13.928 2°55.563 21.068533 0.192766 1.131654  
2002-05-03 06:53:30 51°13.935 2°55.557 21.361791 0.192667 1.131044  
2002-05-03 06:53:35 51°13.945 2°55.551 21.975721 0.192766 1.131654  
2002-05-03 06:53:40 51°13.954 2°55.544 21.106426 0.192766 1.131635  
2002-05-03 06:53:46 51°13.965 2°55.536 21.106426 0.192766 1.131635  
2002-05-03 06:53:50 51°13.973 2°55.53 22.081421 0.192766 1.131635  
2002-05-03 06:53:56 51°13.985 2°55.522 21.794314 0.192766 1.131635  
2002-05-03 06:54:01 51°13.995 2°55.515 21.569635 0.192766 1.131654  
2002-05-03 06:54:06 51°14.004 2°55.508 21.53856 0.192766 1.131674  
2002-05-03 06:54:11 51°14.014 2°55.501 21.183029 0.192766 1.131654  
2002-05-03 06:54:15 51°14.021 2°55.495 21.183029 0.192766 1.131654  
2002-05-03 06:54:20 51°14.031 2°55.488 20.228847 0.192766 1.131654  
2002-05-03 06:54:26 51°14.043 2°55.48 21.27489 0.192766 1.131674  
2002-05-03 06:54:31 51°14.052 2°55.474 20.992126 0.192766 1.131674  
2002-05-03 06:54:35 51°14.06 2°55.469 21.551071 0.192766 1.131674  
2002-05-03 06:54:41 51°14.071 2°55.461 20.869807 0.192766 1.131674  
2002-05-03 06:54:46 51°14.081 2°55.453 20.869807 0.192766 1.131674  
2002-05-03 06:54:50 51°14.088 2°55.448 20.113319 0.192766 1.131693  
2002-05-03 06:54:56 51°14.1 2°55.439 19.650967 0.192766 1.131674  
2002-05-03 06:55:00 51°14.107 2°55.433 19.63901 0.192766 1.131674  
2002-05-03 06:55:06 51°14.118 2°55.423 19.81823 0.192766 1.131693  
2002-05-03 06:55:11 51°14.128 2°55.415 19.487625 0.192766 1.131712  
2002-05-03 06:55:15 51°14.136 2°55.409 19.487625 0.192766 1.131712  
2002-05-03 06:55:20 51°14.145 2°55.401 20.222232 0.192766 1.131693  
2002-05-03 06:55:25 51°14.154 2°55.392 20.112996 0.192766 1.131712  
2002-05-03 06:55:30 51°14.163 2°55.383 20.016415 0.192766 1.131712  
2002-05-03 06:55:36 51°14.174 2°55.373 20.264694 0.192766 1.131712  
2002-05-03 06:55:41 51°14.183 2°55.364 21.381595 0.192766 1.131732  
2002-05-03 06:55:46 51°14.192 2°55.355 21.381595 0.192766 1.131732  
2002-05-03 06:55:50 51°14.199 2°55.347 19.972184 0.192766 1.131732  
2002-05-03 06:55:55 51°14.208 2°55.337 20.072706 0.192766 1.131751  
2002-05-03 06:56:00 51°14.217 2°55.327 20.40432 0.192766 1.131751  
2002-05-03 06:56:05 51°14.225 2°55.316 20.508125 0.192766 1.131751  
2002-05-03 06:56:10 51°14.234 2°55.306 21.881332 0.192766 1.131751  
2002-05-03 06:56:16 51°14.244 2°55.293 21.881332 0.192766 1.131751  
2002-05-03 06:56:20 51°14.25 2°55.285 21.265034 0.192766 1.13177  
2002-05-03 06:56:25 51°14.258 2°55.274 22.20607 0.192766 1.13177  
2002-05-03 06:56:30 51°14.267 2°55.262 22.047227 0.192766 1.13179  
2002-05-03 06:56:36 51°14.276 2°55.248 21.725831 0.192766 1.13179  
2002-05-03 06:56:40 51°14.282 2°55.238 21.23987 0.192766 1.131828  
2002-05-03 06:56:46 51°14.29 2°55.222 21.23987 0.192766 1.131828  
2002-05-03 06:56:50 51°14.296 2°55.212 22.117365 0.192766 1.131809  
2002-05-03 06:56:55 51°14.303 2°55.198 22.087079 0.192766 1.131828  
2002-05-03 06:57:00 51°14.309 2°55.185 21.149953 0.192766 1.131828  
2002-05-03 06:57:06 51°14.317 2°55.169 20.431552 0.192766 1.131828  
2002-05-03 06:57:10 51°14.323 2°55.158 21.31883 0.192766 1.131809  
2002-05-03 06:57:15 51°14.33 2°55.144 21.31883 0.192766 1.131809  
2002-05-03 06:57:20 51°14.336 2°55.13 22.064797 0.192766 1.131847  
2002-05-03 06:57:26 51°14.344 2°55.114 21.772928 0.192766 1.131828  
2002-05-03 06:57:31 51°14.351 2°55.1 21.775295 0.192766 1.131867  
2002-05-03 06:57:35 51°14.357 2°55.089 21.388658 0.192766 1.131867  
2002-05-03 06:57:40 51°14.364 2°55.076 21.779597 0.192766 1.131905  
2002-05-03 06:57:45 51°14.371 2°55.062 21.779597 0.192766 1.131905  
2002-05-03 06:57:50 51°14.378 2°55.049 21.24472 0.192766 1.131886  
2002-05-03 06:57:55 51°14.385 2°55.036 21.330586 0.192766 1.131905  
2002-05-03 06:58:00 51°14.393 2°55.023 21.819125 0.192766 1.131925  
2002-05-03 06:58:05 51°14.401 2°55.011 21.820505 0.192766 1.131944  
2002-05-03 06:58:10 51°14.41 2°54.997 21.855241 0.192766 1.131944  
2002-05-03 06:58:15 51°14.419 2°54.983 21.855241 0.192766 1.131944  
2002-05-03 06:58:20 51°14.429 2°54.968 21.59943 0.192766 1.131925  
2002-05-03 06:58:26 51°14.443 2°54.951 21.50458 0.192766 1.131944  
2002-05-03 06:58:30 51°14.452 2°54.939 21.083398 0.192766 1.131963  
2002-05-03 06:58:35 51°14.464 2°54.924 21.926829 0.192864 1.132593  
2002-05-03 06:58:40 51°14.476 2°54.909 21.020369 0.192766 1.131983  
2002-05-03 06:58:46 51°14.491 2°54.891 21.020369 0.192766 1.131983  
2002-05-03 06:58:50 51°14.501 2°54.878 21.772336 0.192864 1.132632  
2002-05-03 06:58:55 51°14.514 2°54.863 21.223447 0.192766 1.13206  
2002-05-03 06:59:00 51°14.528 2°54.848 21.776124 0.192864 1.132632  
2002-05-03 06:59:06 51°14.545 2°54.831 20.602149 0.192766 1.132041  
2002-05-03 06:59:10 51°14.556 2°54.821 21.971195 0.192864 1.132651  
2002-05-03 06:59:15 51°14.571 2°54.81 21.971195 0.192864 1.132651  
2002-05-03 06:59:20 51°14.586 2°54.8 21.554357 0.192864 1.13267  
2002-05-03 06:59:25 51°14.602 2°54.791 20.771575 0.192864 1.13267  
2002-05-03 06:59:30 51°14.618 2°54.784 21.557682 0.192864 1.13267  
2002-05-03 06:59:35 51°14.633 2°54.776 22.33524 0.192864 1.132748  
2002-05-03 06:59:40 51°14.649 2°54.768 21.531671 0.192864 1.132786  
2002-05-03 06:59:45 51°14.664 2°54.759 21.531671 0.192864 1.132786  
2002-05-03 06:59:51 51°14.682 2°54.747 22.401694 0.192864 1.132806  
2002-05-03 06:59:55 51°14.695 2°54.74 22.213679 0.192864 1.132786  
2002-05-03 07:00:00 51°14.711 2°54.733 21.37596 0.192864 1.132767  
2002-05-03 07:00:05 51°14.726 2°54.726 21.702489 0.192864 1.132825  
2002-05-03 07:00:10 51°14.742 2°54.72 21.63973 0.192864 1.132806  
2002-05-03 07:00:15 51°14.759 2°54.716 21.63973 0.192864 1.132806  
2002-05-03 07:00:20 51°14.776 2°54.713 22.544997 0.192864 1.132825  
2002-05-03 07:00:26 51°14.795 2°54.71 21.92167 0.192864 1.132864  
2002-05-03 07:00:30 51°14.808 2°54.708 21.907058 0.192864 1.132864  
2002-05-03 07:00:35 51°14.825 2°54.708 22.263982 0.192864 1.132864  
2002-05-03 07:00:40 51°14.842 2°54.707 21.330189 0.192864 1.132883  
2002-05-03 07:00:45 51°14.858 2°54.707 21.330189 0.192864 1.132883  
2002-05-03 07:00:50 51°14.875 2°54.707 21.235138 0.192864 1.132941  
2002-05-03 07:00:56 51°14.895 2°54.709 20.713676 0.192864 1.132902  
2002-05-03 07:01:00 51°14.909 2°54.71 21.207696 0.192864 1.13296  
2002-05-03 07:01:06 51°14.929 2°54.714 21.467017 0.192864 1.13298  
2002-05-03 07:01:10 51°14.942 2°54.716 21.570308 0.192864 1.13298  
2002-05-03 07:01:15 51°14.959 2°54.721 21.570308 0.192864 1.13298  
2002-05-03 07:01:20 51°14.976 2°54.725 21.280335 0.192864 1.132999  
2002-05-03 07:01:25 51°14.992 2°54.731 21.669457 0.192864 1.132999  
2002-05-03 07:01:30 51°15.008 2°54.738 21.901582 0.192864 1.133019  
2002-05-03 07:01:35 51°15.024 2°54.745 21.437801 0.192864 1.133019  
2002-05-03 07:01:40 51°15.041 2°54.753 21.353693 0.192864 1.133077  
2002-05-03 07:01:45 51°15.057 2°54.761 21.353693 0.192864 1.133077  
2002-05-03 07:01:50 51°15.072 2°54.77 21.130045 0.192864 1.133057  
2002-05-03 07:01:55 51°15.088 2°54.779 21.456514 0.192864 1.133115  
2002-05-03 07:02:00 51°15.103 2°54.79 21.230406 0.192864 1.133135  
2002-05-03 07:02:06 51°15.122 2°54.801 21.914423 0.192864 1.133115  
2002-05-03 07:02:10 51°15.135 2°54.811 22.044829 0.192963 1.133803  
2002-05-03 07:02:15 51°15.15 2°54.82 22.044829 0.192963 1.133803  
2002-05-03 07:02:20 51°15.166 2°54.831 21.40056 0.192963 1.133765  
2002-05-03 07:02:26 51°15.185 2°54.843 20.422221 0.192864 1.133212  
2002-05-03 07:02:30 51°15.197 2°54.852 20.850299 0.192963 1.133784  
2002-05-03 07:02:36 51°15.216 2°54.864 20.489401 0.192963 1.133803  
2002-05-03 07:02:40 51°15.228 2°54.873 20.656492 0.192963 1.133784  
2002-05-03 07:02:45 51°15.243 2°54.884 20.656492 0.192963 1.133784  
2002-05-03 07:02:50 51°15.258 2°54.896 19.999746 0.192963 1.133784  
2002-05-03 07:02:55 51°15.273 2°54.908 20.826507 0.192963 1.133823  
2002-05-03 07:03:00 51°15.288 2°54.921 20.664709 0.192963 1.133861  
2002-05-03 07:03:05 51°15.303 2°54.934 19.841513 0.192963 1.1339  
2002-05-03 07:03:10 51°15.317 2°54.948 20.47204 0.192963 1.133939  
2002-05-03 07:03:16 51°15.334 2°54.963 20.47204 0.192963 1.133939  
2002-05-03 07:03:20 51°15.346 2°54.975 20.440681 0.192963 1.13392  
2002-05-03 07:03:26 51°15.363 2°54.992 21.4902 0.192963 1.133958  
2002-05-03 07:03:30 51°15.374 2°55.005 21.329831 0.192963 1.133978  
2002-05-03 07:03:35 51°15.388 2°55.019 20.580481 0.192963 1.134016  
2002-05-03 07:03:40 51°15.402 2°55.035 21.00952 0.192963 1.134036  
2002-05-03 07:03:45 51°15.416 2°55.049 21.00952 0.192963 1.134036  
2002-05-03 07:03:51 51°15.432 2°55.068 22.111042 0.192963 1.134016  
2002-05-03 07:03:55 51°15.443 2°55.081 21.954428 0.192963 1.134055  
2002-05-03 07:04:00 51°15.456 2°55.098 21.470228 0.192963 1.134055  
2002-05-03 07:04:05 51°15.469 2°55.115 21.570862 0.192963 1.134055  
2002-05-03 07:04:10 51°15.481 2°55.134 21.314859 0.192963 1.134075  
2002-05-03 07:04:15 51°15.493 2°55.152 21.314859 0.192963 1.134075  
2002-05-03 07:04:20 51°15.505 2°55.17 21.186172 0.192963 1.134094  
2002-05-03 07:04:26 51°15.52 2°55.193 22.159612 0.192963 1.134133  
2002-05-03 07:04:30 51°15.529 2°55.209 21.680917 0.192963 1.134152  
2002-05-03 07:04:35 51°15.541 2°55.227 22.036612 0.192963 1.134191  
2002-05-03 07:04:40 51°15.553 2°55.246 21.783937 0.193062 1.134802  
2002-05-03 07:04:45 51°15.565 2°55.265 21.783937 0.193062 1.134802  
2002-05-03 07:04:50 51°15.577 2°55.284 20.643581 0.193062 1.134802  
2002-05-03 07:04:55 51°15.59 2°55.303 22.716335 0.193062 1.13484  
2002-05-03 07:05:01 51°15.606 2°55.326 23.544201 0.193062 1.134802  
2002-05-03 07:05:06 51°15.619 2°55.345 22.435249 0.193062 1.134821  
2002-05-03 07:05:10 51°15.629 2°55.362 23.581077 0.193062 1.13486  
2002-05-03 07:05:15 51°15.643 2°55.38 23.581077 0.193062 1.13486  
2002-05-03 07:05:20 51°15.656 2°55.401 22.439472 0.193062 1.134821  
2002-05-03 07:05:26 51°15.673 2°55.424 23.519132 0.193062 1.134899  
2002-05-03 07:05:30 51°15.684 2°55.441 23.487967 0.193062 1.13486  
2002-05-03 07:05:35 51°15.699 2°55.459 23.678487 0.193062 1.13486  
2002-05-03 07:05:40 51°15.711 2°55.481 22.892704 0.193062 1.134937  
2002-05-03 07:05:45 51°15.726 2°55.499 22.892704 0.193062 1.134937  
2002-05-03 07:05:50 51°15.74 2°55.52 22.606381 0.193062 1.134899  
2002-05-03 07:05:55 51°15.755 2°55.538 24.286433 0.193062 1.135054  
2002-05-03 07:06:00 51°15.768 2°55.559 22.505829 0.193062 1.134976  
2002-05-03 07:06:06 51°15.786 2°55.582 22.796521 0.193062 1.135073  
2002-05-03 07:06:10 51°15.796 2°55.599 24.465137 0.193062 1.135054  
2002-05-03 07:06:16 51°15.814 2°55.622 24.465137 0.193062 1.135054  
2002-05-03 07:06:20 51°15.824 2°55.639 22.89216 0.193062 1.134996  
2002-05-03 07:06:25 51°15.839 2°55.658 24.061315 0.193062 1.135015  
2002-05-03 07:06:31 51°15.855 2°55.684 22.982395 0.193062 1.134918  
2002-05-03 07:06:35 51°15.867 2°55.699 23.564181 0.193062 1.134976  
2002-05-03 07:06:40 51°15.88 2°55.721 23.968822 0.193062 1.134996  
2002-05-03 07:06:46 51°15.898 2°55.744 23.968822 0.193062 1.134996  
2002-05-03 07:06:50 51°15.908 2°55.762 21.716314 0.193062 1.135034  
2002-05-03 07:06:55 51°15.923 2°55.781 22.780763 0.193062 1.13519  
2002-05-03 07:07:00 51°15.936 2°55.802 24.721368 0.193062 1.135131  
2002-05-03 07:07:05 51°15.95 2°55.822 23.889929 0.193161 1.13582  
2002-05-03 07:07:10 51°15.964 2°55.843 23.097354 0.193062 1.13519  
2002-05-03 07:07:15 51°15.977 2°55.864 23.097354 0.193062 1.13519  
2002-05-03 07:07:20 51°15.99 2°55.886 24.671612 0.193062 1.135209  
2002-05-03 07:07:26 51°16.005 2°55.913 23.764712 0.193062 1.135209  
2002-05-03 07:07:30 51°16.014 2°55.931 23.075268 0.193161 1.135781  
2002-05-03 07:07:35 51°16.026 2°55.955 23.585579 0.193062 1.135228  
2002-05-03 07:07:40 51°16.037 2°55.979 23.708533 0.193062 1.13519  
2002-05-03 07:07:45 51°16.047 2°56.004 23.708533 0.193062 1.13519  
2002-05-03 07:07:50 51°16.057 2°56.029 21.737401 0.193062 1.135209  
2002-05-03 07:07:55 51°16.067 2°56.054 23.179361 0.193062 1.135267  
2002-05-03 07:08:00 51°16.076 2°56.08 21.772849 0.193161 1.135859  
2002-05-03 07:08:05 51°16.086 2°56.106 24.259752 0.193161 1.135956  
2002-05-03 07:08:10 51°16.094 2°56.132 23.439632 0.193161 1.135917  
2002-05-03 07:08:15 51°16.104 2°56.158 23.439632 0.193161 1.135917  
2002-05-03 07:08:20 51°16.112 2°56.184 23.856546 0.193161 1.135917  
2002-05-03 07:08:26 51°16.124 2°56.215 22.36413 0.193161 1.135976  
2002-05-03 07:08:30 51°16.131 2°56.236 23.128999 0.193161 1.135917  
2002-05-03 07:08:35 51°16.141 2°56.261 22.880037 0.193161 1.135976  
2002-05-03 07:08:40 51°16.15 2°56.287 23.417805 0.193161 1.135976  
2002-05-03 07:08:45 51°16.161 2°56.312 23.417805 0.193161 1.135976  
2002-05-03 07:08:51 51°16.172 2°56.343 24.176939 0.193161 1.135976  
2002-05-03 07:08:55 51°16.181 2°56.363 24.399454 0.193161 1.136014  
2002-05-03 07:09:00 51°16.191 2°56.388 23.521636 0.193161 1.135976  
2002-05-03 07:09:06 51°16.203 2°56.418 24.217156 0.193161 1.136014  
2002-05-03 07:09:10 51°16.211 2°56.439 24.057645 0.193161 1.136053  
2002-05-03 07:09:15 51°16.222 2°56.463 24.057645 0.193161 1.136053  
2002-05-03 07:09:20 51°16.232 2°56.489 21.381595 0.193161 1.136034  
2002-05-03 07:09:25 51°16.242 2°56.513 23.752351 0.193161 1.136131  
2002-05-03 07:09:30 51°16.252 2°56.539 23.24326 0.193161 1.136092  
2002-05-03 07:09:35 51°16.263 2°56.564 23.72117 0.193161 1.13615  
2002-05-03 07:09:40 51°16.272 2°56.59 24.44183 0.193161 1.13617  
2002-05-03 07:09:45 51°16.284 2°56.614 24.44183 0.193161 1.13617  
2002-05-03 07:09:50 51°16.293 2°56.64 22.871993 0.193161 1.136112  
2002-05-03 07:09:55 51°16.304 2°56.664 23.065696 0.193161 1.136209  
2002-05-03 07:10:00 51°16.314 2°56.69 23.441868 0.193161 1.136112  
2002-05-03 07:10:06 51°16.326 2°56.719 22.434389 0.19326 1.136781  
2002-05-03 07:10:10 51°16.334 2°56.74 24.298856 0.193161 1.13617  
2002-05-03 07:10:15 51°16.345 2°56.765 24.298856 0.193161 1.13617  
2002-05-03 07:10:20 51°16.354 2°56.791 24.548154 0.19326 1.136762  
2002-05-03 07:10:25 51°16.365 2°56.815 24.552825 0.193161 1.136228  
2002-05-03 07:10:30 51°16.374 2°56.841 24.361318 0.193161 1.136209  
2002-05-03 07:10:35 51°16.385 2°56.865 22.410299 0.19326 1.136839  
2002-05-03 07:10:40 51°16.395 2°56.891 22.859633 0.193161 1.136267  
2002-05-03 07:10:46 51°16.407 2°56.921 22.859633 0.193161 1.136267  
2002-05-03 07:10:50 51°16.415 2°56.942 23.741946 0.19326 1.13682  
2002-05-03 07:10:55 51°16.426 2°56.966 23.210196 0.193161 1.136286  
2002-05-03 07:11:00 51°16.435 2°56.992 24.128527 0.193161 1.136267  
2002-05-03 07:11:06 51°16.448 2°57.021 23.119975 0.19326 1.136878  
2002-05-03 07:11:10 51°16.456 2°57.041 23.720633 0.19326 1.136898  
2002-05-03 07:11:15 51°16.467 2°57.066 23.720633 0.19326 1.136898  
2002-05-03 07:11:20 51°16.476 2°57.092 21.647677 0.19326 1.136898  
2002-05-03 07:11:26 51°16.49 2°57.121 22.812119 0.19326 1.136937  
2002-05-03 07:11:30 51°16.497 2°57.142 22.645845 0.19326 1.136917  
2002-05-03 07:11:35 51°16.508 2°57.166 22.459096 0.19326 1.136917  
2002-05-03 07:11:40 51°16.517 2°57.192 22.396491 0.19326 1.136976  
2002-05-03 07:11:45 51°16.528 2°57.216 22.396491 0.19326 1.136976  
2002-05-03 07:11:50 51°16.537 2°57.243 21.978397 0.19326 1.136917  
2002-05-03 07:11:55 51°16.547 2°57.268 23.611048 0.19326 1.136995  
2002-05-03 07:12:00 51°16.556 2°57.294 23.736993 0.19326 1.136976  
2002-05-03 07:12:06 51°16.568 2°57.325 22.502431 0.19326 1.136976  
2002-05-03 07:12:10 51°16.575 2°57.346 23.774192 0.19326 1.137014  
2002-05-03 07:12:15 51°16.585 2°57.371 23.774192 0.19326 1.137014  
2002-05-03 07:12:20 51°16.593 2°57.397 21.99083 0.19326 1.136937  
2002-05-03 07:12:26 51°16.605 2°57.428 23.869042 0.19326 1.136995  
2002-05-03 07:12:30 51°16.613 2°57.449 24.345022 0.19326 1.137014  
2002-05-03 07:12:35 51°16.623 2°57.474 24.216965 0.19326 1.136956  
2002-05-03 07:12:40 51°16.632 2°57.5 24.313829 0.19326 1.137092  
2002-05-03 07:12:46 51°16.643 2°57.531 24.313829 0.19326 1.137092  
2002-05-03 07:12:50 51°16.65 2°57.552 23.281295 0.19326 1.137053  
2002-05-03 07:12:55 51°16.661 2°57.577 23.569493 0.19326 1.137092  
2002-05-03 07:13:00 51°16.67 2°57.603 24.910648 0.19326 1.137131  
2002-05-03 07:13:06 51°16.681 2°57.634 22.198813 0.19326 1.137073  
2002-05-03 07:13:10 51°16.689 2°57.654 24.201133 0.19326 1.137131  
2002-05-03 07:13:15 51°16.698 2°57.68 24.201133 0.19326 1.137131  
2002-05-03 07:13:20 51°16.708 2°57.705 23.003113 0.19326 1.137092  
2002-05-03 07:13:25 51°16.718 2°57.73 24.205711 0.19326 1.137112  
2002-05-03 07:13:30 51°16.727 2°57.757 22.977816 0.19326 1.137112  
2002-05-03 07:13:35 51°16.737 2°57.782 22.885127 0.193359 1.137704  
2002-05-03 07:13:40 51°16.746 2°57.808 22.151212 0.19326 1.137151  
2002-05-03 07:13:46 51°16.758 2°57.838 22.151212 0.19326 1.137151  
2002-05-03 07:13:50 51°16.765 2°57.859 24.642076 0.193359 1.137723  
2002-05-03 07:13:55 51°16.776 2°57.884 25.055519 0.19326 1.13717  
2002-05-03 07:14:00 51°16.785 2°57.91 22.731172 0.19326 1.137151  
2002-05-03 07:14:06 51°16.797 2°57.94 21.90044 0.19326 1.137151  
2002-05-03 07:14:10 51°16.804 2°57.961 23.784746 0.19326 1.13717  
2002-05-03 07:14:16 51°16.816 2°57.991 23.784746 0.19326 1.13717  
2002-05-03 07:14:20 51°16.824 2°58.012 23.970697 0.19326 1.137151  
2002-05-03 07:14:25 51°16.834 2°58.037 22.264727 0.193359 1.137782  
2002-05-03 07:14:30 51°16.843 2°58.063 21.586888 0.193359 1.137821  
2002-05-03 07:14:36 51°16.855 2°58.094 21.489645 0.193359 1.137743  
2002-05-03 07:14:40 51°16.862 2°58.115 24.075993 0.193359 1.137821  
2002-05-03 07:14:45 51°16.872 2°58.14 24.075993 0.193359 1.137821  
2002-05-03 07:14:50 51°16.882 2°58.166 23.226285 0.19326 1.13719  
2002-05-03 07:14:55 51°16.891 2°58.192 22.305515 0.193359 1.137821  
2002-05-03 07:15:00 51°16.901 2°58.218 24.395953 0.19326 1.137267  
2002-05-03 07:15:05 51°16.911 2°58.244 24.64492 0.193359 1.137801  
2002-05-03 07:15:10 51°16.92 2°58.27 22.729731 0.193359 1.137898  
2002-05-03 07:15:15 51°16.93 2°58.295 22.729731 0.193359 1.137898  
2002-05-03 07:15:20 51°16.94 2°58.321 24.116266 0.193359 1.13784  
2002-05-03 07:15:25 51°16.949 2°58.347 21.962497 0.193359 1.13784  
2002-05-03 07:15:30 51°16.959 2°58.372 23.530571 0.193359 1.137879  
2002-05-03 07:15:35 51°16.969 2°58.399 24.627815 0.193359 1.13784  
2002-05-03 07:15:40 51°16.98 2°58.424 23.75285 0.193359 1.137898  
2002-05-03 07:15:46 51°16.99 2°58.456 23.75285 0.193359 1.137898  
2002-05-03 07:15:50 51°16.999 2°58.476 23.883376 0.193359 1.137918  
2002-05-03 07:15:55 51°17.008 2°58.503 21.230167 0.193359 1.137879  
2002-05-03 07:16:00 51°17.019 2°58.528 24.041664 0.193359 1.137937  
2002-05-03 07:16:06 51°17.029 2°58.56 23.37992 0.193359 1.137898  
2002-05-03 07:16:10 51°17.038 2°58.58 22.365461 0.193359 1.137918  
2002-05-03 07:16:15 51°17.047 2°58.607 22.365461 0.193359 1.137918  
2002-05-03 07:16:20 51°17.058 2°58.632 23.227755 0.193359 1.137976  
2002-05-03 07:16:25 51°17.066 2°58.659 22.750133 0.193359 1.137898  
2002-05-03 07:16:30 51°17.077 2°58.684 23.639738 0.193359 1.138054  
2002-05-03 07:16:35 51°17.086 2°58.712 24.489273 0.193359 1.137976  
2002-05-03 07:16:40 51°17.097 2°58.736 23.205554 0.193359 1.137996  
2002-05-03 07:16:46 51°17.107 2°58.769 23.205554 0.193359 1.137996  
2002-05-03 07:16:50 51°17.116 2°58.788 22.251321 0.193359 1.138093  
2002-05-03 07:16:55 51°17.125 2°58.815 22.634655 0.193359 1.138015  
2002-05-03 07:17:00 51°17.136 2°58.84 24.028279 0.193359 1.138093  
2002-05-03 07:17:05 51°17.144 2°58.867 23.782251 0.193359 1.138035  
2002-05-03 07:17:10 51°17.155 2°58.892 22.88299 0.193359 1.138054  
2002-05-03 07:17:15 51°17.164 2°58.919 22.88299 0.193359 1.138054  
2002-05-03 07:17:21 51°17.177 2°58.949 24.129635 0.193359 1.138054  
2002-05-03 07:17:25 51°17.183 2°58.971 21.226509 0.193359 1.137996  
2002-05-03 07:17:30 51°17.194 2°58.996 23.412443 0.193359 1.138074  
2002-05-03 07:17:35 51°17.202 2°59.023 22.966445 0.193359 1.138054  
2002-05-03 07:17:40 51°17.212 2°59.049 24.076146 0.193359 1.138035  
2002-05-03 07:17:46 51°17.222 2°59.082 24.076146 0.193359 1.138035  
2002-05-03 07:17:51 51°17.232 2°59.108 22.529106 0.193359 1.138074  
2002-05-03 07:17:56 51°17.24 2°59.135 23.07147 0.193359 1.138035  
2002-05-03 07:18:00 51°17.248 2°59.157 24.081573 0.193359 1.138093  
2002-05-03 07:18:05 51°17.255 2°59.184 22.630717 0.193359 1.138074  
2002-05-03 07:18:10 51°17.265 2°59.211 24.18377 0.193359 1.138054  
2002-05-03 07:18:15 51°17.273 2°59.238 24.18377 0.193359 1.138054  
2002-05-03 07:18:20 51°17.281 2°59.265 23.334447 0.193359 1.138074  
2002-05-03 07:18:26 51°17.292 2°59.297 21.902292 0.193359 1.138054  
2002-05-03 07:18:30 51°17.299 2°59.319 23.540967 0.193359 1.138074  
2002-05-03 07:18:35 51°17.308 2°59.346 24.285176 0.193359 1.138074  
2002-05-03 07:18:40 51°17.316 2°59.373 21.682023 0.193359 1.138074  
2002-05-03 07:18:45 51°17.325 2°59.4 21.682023 0.193359 1.138074  
2002-05-03 07:18:50 51°17.334 2°59.427 23.076353 0.193359 1.138074  
2002-05-03 07:18:55 51°17.343 2°59.454 23.571417 0.193359 1.138093  
2002-05-03 07:19:00 51°17.351 2°59.482 23.892075 0.193359 1.138093  
2002-05-03 07:19:05 51°17.361 2°59.508 23.671415 0.193359 1.138113  
2002-05-03 07:19:10 51°17.369 2°59.535 23.674144 0.193359 1.138132  
2002-05-03 07:19:16 51°17.38 2°59.567 23.674144 0.193359 1.138132  
2002-05-03 07:19:20 51°17.388 2°59.589 23.359542 0.193359 1.138113  
2002-05-03 07:19:25 51°17.397 2°59.616 23.805004 0.193359 1.138152  
2002-05-03 07:19:30 51°17.406 2°59.642 24.184724 0.193359 1.138152  
2002-05-03 07:19:35 51°17.415 2°59.669 23.24384 0.193359 1.138171  
2002-05-03 07:19:40 51°17.425 2°59.694 23.213213 0.193359 1.13821  
2002-05-03 07:19:45 51°17.435 2°59.721 23.213213 0.193359 1.13821  
2002-05-03 07:19:50 51°17.446 2°59.745 24.473158 0.193359 1.13823  
2002-05-03 07:19:56 51°17.457 2°59.777 24.473158 0.193359 1.138191  
2002-05-03 07:20:00 51°17.467 2°59.796 23.84884 0.193359 1.138269  
2002-05-03 07:20:05 51°17.476 2°59.822 23.185785 0.193359 1.138249  
2002-05-03 07:20:10 51°17.488 2°59.846 23.535307 0.193359 1.138249  
2002-05-03 07:20:15 51°17.498 2°59.872 23.535307 0.193359 1.138249  
2002-05-03 07:20:20 51°17.51 2°59.896 23.791653 0.193359 1.138327  
2002-05-03 07:20:25 51°17.52 2°59.922 23.572803 0.193359 1.138288  
2002-05-03 07:20:30 51°17.531 2°59.946 23.547397 0.193359 1.138347  
2002-05-03 07:20:36 51°17.543 2°59.977 23.452779 0.193359 1.138347  
2002-05-03 07:20:40 51°17.553 2°59.997 21.272228 0.193359 1.138308  
2002-05-03 07:20:45 51°17.562 3°0.023 21.272228 0.193359 1.138308  
2002-05-03 07:20:50 51°17.574 3°0.047 23.429105 0.193359 1.138386  
2002-05-03 07:20:56 51°17.586 3°0.079 23.175801 0.193359 1.138327  
2002-05-03 07:21:00 51°17.595 3°0.098 24.184343 0.193457 1.139036  
2002-05-03 07:21:05 51°17.604 3°0.125 23.749356 0.193359 1.138444  
2002-05-03 07:21:10 51°17.615 3°0.149 23.747513 0.193359 1.138347  
2002-05-03 07:21:16 51°17.626 3°0.18 23.747513 0.193359 1.138347  
2002-05-03 07:21:20 51°17.635 3°0.2 24.507588 0.193359 1.138444  
2002-05-03 07:21:25 51°17.644 3°0.227 24.286814 0.193457 1.139017  
2002-05-03 07:21:30 51°17.655 3°0.251 24.114203 0.193359 1.138444  
2002-05-03 07:21:36 51°17.667 3°0.282 23.979385 0.193359 1.138503  
2002-05-03 07:21:40 51°17.676 3°0.302 21.750785 0.193457 1.139036  
2002-05-03 07:21:45 51°17.685 3°0.328 21.750785 0.193457 1.139036  
2002-05-03 07:21:50 51°17.697 3°0.353 23.512122 0.193359 1.138542  
2002-05-03 07:21:56 51°17.709 3°0.384 23.385013 0.193359 1.138464  
2002-05-03 07:22:00 51°17.718 3°0.403 23.681753 0.193457 1.139114  
2002-05-03 07:22:05 51°17.727 3°0.43 23.874485 0.193359 1.138522  
2002-05-03 07:22:10 51°17.738 3°0.454 24.676767 0.193359 1.138503  
2002-05-03 07:22:16 51°17.75 3°0.485 24.676767 0.193359 1.138503  
2002-05-03 07:22:20 51°17.759 3°0.505 24.402726 0.193457 1.139153  
2002-05-03 07:22:25 51°17.769 3°0.531 23.045538 0.193457 1.139114  
2002-05-03 07:22:30 51°17.78 3°0.556 23.049687 0.193359 1.138503  
2002-05-03 07:22:35 51°17.79 3°0.582 24.190945 0.193359 1.138542  
2002-05-03 07:22:40 51°17.8 3°0.607 23.748742 0.193359 1.138503  
2002-05-03 07:22:45 51°17.81 3°0.633 23.748742 0.193359 1.138503  
2002-05-03 07:22:50 51°17.82 3°0.658 23.913759 0.193457 1.139173  
2002-05-03 07:22:56 51°17.833 3°0.688 22.840507 0.193359 1.13862  
2002-05-03 07:23:00 51°17.841 3°0.709 22.299679 0.193457 1.139173  
2002-05-03 07:23:05 51°17.851 3°0.735 23.223656 0.193457 1.13931  
2002-05-03 07:23:10 51°17.861 3°0.76 24.354427 0.193359 1.1386  
2002-05-03 07:23:16 51°17.874 3°0.79 24.354427 0.193359 1.1386  
2002-05-03 07:23:20 51°17.882 3°0.811 23.575189 0.193457 1.139251  
2002-05-03 07:23:25 51°17.892 3°0.836 20.649516 0.193359 1.138678  
2002-05-03 07:23:30 51°17.902 3°0.862 22.785705 0.193457 1.139173  
2002-05-03 07:23:36 51°17.915 3°0.892 25.174395 0.193359 1.138698  
2002-05-03 07:23:40 51°17.922 3°0.913 24.1181 0.193359 1.138639  
2002-05-03 07:23:45 51°17.933 3°0.938 24.1181 0.193359 1.138639  
2002-05-03 07:23:50 51°17.943 3°0.964 23.679025 0.193457 1.139271  
2002-05-03 07:23:56 51°17.956 3°0.993 23.180212 0.193359 1.138717  
2002-05-03 07:24:00 51°17.964 3°1.015 24.125739 0.193457 1.139251  
2002-05-03 07:24:05 51°17.975 3°1.04 23.906864 0.193457 1.139368  
2002-05-03 07:24:10 51°17.985 3°1.066 24.318857 0.193457 1.139329  
2002-05-03 07:24:16 51°17.999 3°1.096 24.318857 0.193457 1.139329  
2002-05-03 07:24:20 51°18.006 3°1.117 21.650603 0.193457 1.139349  
2002-05-03 07:24:25 51°18.017 3°1.141 23.410901 0.193457 1.139407  
2002-05-03 07:24:30 51°18.027 3°1.168 23.852252 0.193359 1.138717  
2002-05-03 07:24:36 51°18.04 3°1.197 23.950255 0.193457 1.139407  
2002-05-03 07:24:40 51°18.048 3°1.219 22.141986 0.193359 1.138854  
2002-05-03 07:24:45 51°18.059 3°1.243 22.141986 0.193359 1.138854  
2002-05-03 07:24:51 51°18.071 3°1.275 24.109008 0.193457 1.139368  
2002-05-03 07:24:55 51°18.08 3°1.294 24.333255 0.193359 1.138854  
2002-05-03 07:25:00 51°18.09 3°1.321 22.725564 0.193359 1.138795  
2002-05-03 07:25:06 51°18.103 3°1.351 22.920749 0.193457 1.139427  
2002-05-03 07:25:10 51°18.111 3°1.372 23.050695 0.193359 1.138873  
2002-05-03 07:25:15 51°18.121 3°1.397 23.050695 0.193359 1.138873  
2002-05-03 07:25:20 51°18.131 3°1.423 24.120239 0.193457 1.139407  
2002-05-03 07:25:26 51°18.144 3°1.454 23.688017 0.193457 1.139466  
2002-05-03 07:25:31 51°18.154 3°1.48 23.245193 0.193359 1.138854  
2002-05-03 07:25:35 51°18.163 3°1.5 22.805546 0.193457 1.139466  
2002-05-03 07:25:40 51°18.172 3°1.526 24.291845 0.193457 1.139563  
2002-05-03 07:25:45 51°18.183 3°1.551 24.291845 0.193457 1.139563  
2002-05-03 07:25:51 51°18.195 3°1.582 23.470895 0.193359 1.138893  
2002-05-03 07:25:55 51°18.203 3°1.603 23.287361 0.193457 1.139544  
2002-05-03 07:26:00 51°18.213 3°1.628 24.29535 0.193359 1.138951  
2002-05-03 07:26:05 51°18.224 3°1.654 24.39036 0.193457 1.139524  
2002-05-03 07:26:10 51°18.234 3°1.679 24.112981 0.193457 1.139583  
2002-05-03 07:26:15 51°18.244 3°1.705 24.112981 0.193457 1.139583  
2002-05-03 07:26:20 51°18.255 3°1.729 23.926973 0.193457 1.139602  
2002-05-03 07:26:26 51°18.266 3°1.761 23.423127 0.193457 1.139544  
2002-05-03 07:26:31 51°18.278 3°1.785 24.178427 0.193359 1.139049  
2002-05-03 07:26:35 51°18.285 3°1.806 26.033472 0.193457 1.139602  
2002-05-03 07:26:40 51°18.296 3°1.83 25.422413 0.193457 1.139642  
2002-05-03 07:26:46 51°18.308 3°1.862 25.422413 0.193457 1.139642  
2002-05-03 07:26:50 51°18.317 3°1.881 23.704922 0.193457 1.139681  
2002-05-03 07:26:56 51°18.328 3°1.912 24.128909 0.193457 1.139642  
2002-05-03 07:27:00 51°18.337 3°1.931 22.486374 0.193457 1.139681  
2002-05-03 07:27:06 51°18.349 3°1.962 23.84815 0.193457 1.13972  
2002-05-03 07:27:10 51°18.357 3°1.982 23.841172 0.193457 1.139642  
2002-05-03 07:27:15 51°18.367 3°2.008 23.841172 0.193457 1.139642  
2002-05-03 07:27:20 51°18.378 3°2.032 23.412752 0.193457 1.139739  
2002-05-03 07:27:25 51°18.387 3°2.058 24.85308 0.193457 1.1397  
2002-05-03 07:27:30 51°18.399 3°2.082 23.920232 0.193457 1.139739  
2002-05-03 07:27:35 51°18.408 3°2.108 24.110498 0.193457 1.139778  
2002-05-03 07:27:40 51°18.419 3°2.133 24.235883 0.193457 1.13972  
2002-05-03 07:27:46 51°18.431 3°2.163 24.235883 0.193457 1.13972  
2002-05-03 07:27:50 51°18.44 3°2.183 23.798712 0.193457 1.139817  
2002-05-03 07:27:55 51°18.449 3°2.208 23.83496 0.193457 1.139798  
2002-05-03 07:28:00 51°18.46 3°2.232 22.790296 0.193457 1.139817  
2002-05-03 07:28:06 51°18.472 3°2.262 23.901577 0.193457 1.139856  
2002-05-03 07:28:10 51°18.48 3°2.283 23.840405 0.193457 1.139778  
2002-05-03 07:28:15 51°18.49 3°2.308 23.840405 0.193457 1.139778  
2002-05-03 07:28:20 51°18.501 3°2.333 23.966793 0.193457 1.139856  
2002-05-03 07:28:26 51°18.513 3°2.362 23.306446 0.193457 1.139837  
2002-05-03 07:28:31 51°18.522 3°2.388 24.995159 0.193457 1.139798  
2002-05-03 07:28:35 51°18.531 3°2.407 24.65986 0.193458 1.139935  
2002-05-03 07:28:40 51°18.541 3°2.432 24.07305 0.193457 1.139837  
2002-05-03 07:28:45 51°18.551 3°2.457 24.07305 0.193457 1.139837  
2002-05-03 07:28:51 51°18.563 3°2.487 24.638018 0.193458 1.139895  
2002-05-03 07:28:56 51°18.574 3°2.511 24.512033 0.193458 1.139935  
2002-05-03 07:29:00 51°18.581 3°2.531 23.352709 0.193457 1.139856  
2002-05-03 07:29:05 51°18.592 3°2.555 23.135194 0.193458 1.139915  
2002-05-03 07:29:10 51°18.601 3°2.581 24.111338 0.193458 1.139895  
2002-05-03 07:29:15 51°18.612 3°2.605 24.111338 0.193458 1.139895  
2002-05-03 07:29:21 51°18.623 3°2.636 24.173198 0.193458 1.139895  
2002-05-03 07:29:26 51°18.634 3°2.659 23.139298 0.193359 1.139342  
2002-05-03 07:29:30 51°18.641 3°2.68 23.455863 0.193458 1.139935  
2002-05-03 07:29:35 51°18.652 3°2.704 23.11343 0.193458 1.139993  
2002-05-03 07:29:40 51°18.661 3°2.73 22.829076 0.193458 1.139993  
2002-05-03 07:29:46 51°18.674 3°2.758 22.829076 0.193458 1.139993  
2002-05-03 07:29:50 51°18.681 3°2.779 24.716633 0.193458 1.139993  
2002-05-03 07:29:55 51°18.692 3°2.803 24.375326 0.193458 1.140032  
2002-05-03 07:30:00 51°18.701 3°2.828 24.375707 0.193458 1.140013  
2002-05-03 07:30:06 51°18.714 3°2.857 23.720633 0.193458 1.139993  
2002-05-03 07:30:10 51°18.721 3°2.878 24.164419 0.193458 1.140071  
2002-05-03 07:30:15 51°18.732 3°2.901 24.164419 0.193458 1.140071  
2002-05-03 07:30:20 51°18.742 3°2.927 24.289444 0.193458 1.140013  
2002-05-03 07:30:25 51°18.752 3°2.951 23.887592 0.193458 1.140071  
2002-05-03 07:30:31 51°18.764 3°2.981 23.32348 0.193359 1.139478  
2002-05-03 07:30:35 51°18.772 3°3 24.948384 0.193458 1.140032  
2002-05-03 07:30:40 51°18.782 3°3.025 25.355783 0.193458 1.14013  
2002-05-03 07:30:45 51°18.792 3°3.049 25.355783 0.193458 1.14013  
2002-05-03 07:30:50 51°18.802 3°3.074 23.517399 0.193458 1.140091  
2002-05-03 07:30:55 51°18.812 3°3.099 23.109479 0.193458 1.14011  
2002-05-03 07:31:00 51°18.822 3°3.123 23.614279 0.193458 1.140189  
2002-05-03 07:31:06 51°18.834 3°3.154 24.835229 0.193458 1.14011  
2002-05-03 07:31:11 51°18.845 3°3.177 25.55152 0.193458 1.14015  
2002-05-03 07:31:15 51°18.852 3°3.198 25.55152 0.193458 1.14015  
2002-05-03 07:31:20 51°18.863 3°3.221 23.8723 0.193359 1.139576  
2002-05-03 07:31:25 51°18.872 3°3.247 24.655537 0.193458 1.14011  
2002-05-03 07:31:30 51°18.883 3°3.271 23.814863 0.193458 1.140228  
2002-05-03 07:31:35 51°18.892 3°3.296 23.122802 0.193458 1.140169  
2002-05-03 07:31:40 51°18.904 3°3.32 24.103659 0.193458 1.140228  
2002-05-03 07:31:46 51°18.915 3°3.35 24.103659 0.193458 1.140228  
2002-05-03 07:31:51 51°18.926 3°3.374 23.790425 0.193458 1.140286  
2002-05-03 07:31:55 51°18.933 3°3.394 23.511005 0.193458 1.140247  
2002-05-03 07:32:00 51°18.945 3°3.418 23.98436 0.193458 1.140247  
2002-05-03 07:32:06 51°18.956 3°3.448 23.292384 0.193458 1.140286  
2002-05-03 07:32:10 51°18.965 3°3.467 22.974246 0.193458 1.140208  
2002-05-03 07:32:15 51°18.974 3°3.492 22.974246 0.193458 1.140208  
2002-05-03 07:32:20 51°18.985 3°3.516 23.329427 0.193458 1.140306  
2002-05-03 07:32:26 51°18.997 3°3.546 23.803163 0.193359 1.139635  
2002-05-03 07:32:30 51°19.006 3°3.566 23.990521 0.193458 1.140267  
2002-05-03 07:32:35 51°19.016 3°3.591 23.747014 0.193359 1.139772  
2002-05-03 07:32:40 51°19.026 3°3.616 23.177349 0.193458 1.140306  
2002-05-03 07:32:46 51°19.039 3°3.645 23.177349 0.193458 1.140306  
2002-05-03 07:32:51 51°19.048 3°3.671 22.928166 0.193458 1.140345  
2002-05-03 07:32:55 51°19.057 3°3.69 23.149674 0.193458 1.140384  
2002-05-03 07:33:00 51°19.066 3°3.715 23.969281 0.193458 1.140306  
2002-05-03 07:33:06 51°19.079 3°3.744 23.377218 0.193458 1.140404  
2002-05-03 07:33:10 51°19.086 3°3.764 24.287958 0.193359 1.139732  
2002-05-03 07:33:15 51°19.097 3°3.788 24.287958 0.193359 1.139732  
2002-05-03 07:33:20 51°19.106 3°3.814 24.570593 0.193458 1.140384  
2002-05-03 07:33:25 51°19.117 3°3.838 24.138189 0.193458 1.140502  
2002-05-03 07:33:30 51°19.126 3°3.863 23.507461 0.193458 1.140384  
2002-05-03 07:33:35 51°19.137 3°3.887 23.735149 0.193458 1.140482  
2002-05-03 07:33:40 51°19.147 3°3.912 23.985814 0.193359 1.13983  
2002-05-03 07:33:46 51°19.16 3°3.941 23.985814 0.193359 1.13983  
2002-05-03 07:33:50 51°19.167 3°3.962 24.486119 0.193458 1.140462  
2002-05-03 07:33:55 51°19.178 3°3.985 22.855552 0.193359 1.139889  
2002-05-03 07:34:00 51°19.187 3°4.011 23.835497 0.193458 1.140462  
2002-05-03 07:34:05 51°19.199 3°4.034 24.310629 0.193458 1.140541  
2002-05-03 07:34:10 51°19.208 3°4.059 23.177658 0.193458 1.140541  
2002-05-03 07:34:15 51°19.219 3°4.082 23.177658 0.193458 1.140541  
2002-05-03 07:34:20 51°19.228 3°4.108 23.241984 0.193458 1.140482  
2002-05-03 07:34:25 51°19.24 3°4.131 22.580046 0.193458 1.140599  
2002-05-03 07:34:31 51°19.251 3°4.161 23.119317 0.193359 1.139928  
2002-05-03 07:34:35 51°19.26 3°4.179 23.880464 0.193458 1.140599  
2002-05-03 07:34:40 51°19.269 3°4.204 23.882418 0.193458 1.140619  
2002-05-03 07:34:45 51°19.281 3°4.227 23.882418 0.193458 1.140619  
2002-05-03 07:34:50 51°19.29 3°4.253 24.169152 0.193458 1.140599  
2002-05-03 07:34:55 51°19.301 3°4.276 23.63697 0.193458 1.140639  
2002-05-03 07:35:00 51°19.31 3°4.301 24.264708 0.193458 1.140619  
2002-05-03 07:35:06 51°19.323 3°4.33 23.796717 0.193458 1.140619  
2002-05-03 07:35:10 51°19.331 3°4.35 23.486079 0.193458 1.140697  
2002-05-03 07:35:16 51°19.343 3°4.379 23.486079 0.193458 1.140697  
2002-05-03 07:35:20 51°19.351 3°4.398 24.144566 0.193359 1.140026  
2002-05-03 07:35:26 51°19.363 3°4.428 24.257846 0.193458 1.140678  
2002-05-03 07:35:30 51°19.371 3°4.447 23.963731 0.193458 1.140697  
2002-05-03 07:35:35 51°19.383 3°4.469 24.248695 0.193458 1.140717  
2002-05-03 07:35:40 51°19.394 3°4.492 23.908319 0.193458 1.140776  
2002-05-03 07:35:46 51°19.409 3°4.518 23.908319 0.193458 1.140776  
2002-05-03 07:35:50 51°19.42 3°4.534 23.387907 0.193458 1.140756  
2002-05-03 07:35:55 51°19.433 3°4.554 23.689861 0.193458 1.140756  
2002-05-03 07:36:00 51°19.446 3°4.575 23.881843 0.193458 1.140776  
2002-05-03 07:36:05 51°19.459 3°4.594 24.004487 0.193359 1.140124  
2002-05-03 07:36:10 51°19.473 3°4.614 23.468506 0.193458 1.140776  
2002-05-03 07:36:15 51°19.486 3°4.634 23.468506 0.193458 1.140776  
2002-05-03 07:36:20 51°19.5 3°4.653 24.447458 0.193458 1.140776  
2002-05-03 07:36:26 51°19.515 3°4.678 23.066006 0.193458 1.140756  
2002-05-03 07:36:31 51°19.528 3°4.697 23.545434 0.193458 1.140834  
2002-05-03 07:36:35 51°19.538 3°4.714 22.302852 0.193359 1.140202  
2002-05-03 07:36:40 51°19.551 3°4.734 25.078669 0.193458 1.140854  
2002-05-03 07:36:45 51°19.563 3°4.755 25.078669 0.193458 1.140854  
2002-05-03 07:36:51 51°19.58 3°4.779 23.929769 0.193359 1.1403  
2002-05-03 07:36:56 51°19.591 3°4.801 23.041817 0.193458 1.140834  
2002-05-03 07:37:00 51°19.602 3°4.816 23.651811 0.193458 1.140893  
2002-05-03 07:37:06 51°19.616 3°4.842 23.334949 0.193458 1.140873  
2002-05-03 07:37:10 51°19.627 3°4.858 23.402298 0.193458 1.140873  
2002-05-03 07:37:15 51°19.638 3°4.88 23.402298 0.193458 1.140873  
2002-05-03 07:37:20 51°19.652 3°4.9 23.626318 0.193458 1.140932  
2002-05-03 07:37:26 51°19.665 3°4.926 24.094566 0.193458 1.140873  
2002-05-03 07:37:30 51°19.676 3°4.942 24.349363 0.193458 1.140971  
2002-05-03 07:37:36 51°19.69 3°4.969 23.660268 0.193359 1.140358  
2002-05-03 07:37:40 51°19.7 3°4.984 24.070719 0.193458 1.140952  
2002-05-03 07:37:45 51°19.712 3°5.007 24.070719 0.193458 1.140952  
2002-05-03 07:37:51 51°19.727 3°5.03 23.445569 0.193458 1.14105  
2002-05-03 07:37:55 51°19.736 3°5.048 23.511776 0.193458 1.140971  
2002-05-03 07:38:00 51°19.75 3°5.067 23.197508 0.193458 1.14105  
2002-05-03 07:38:06 51°19.763 3°5.093 23.387792 0.193359 1.140398  
2002-05-03 07:38:11 51°19.776 3°5.112 23.484884 0.193458 1.14103  
2002-05-03 07:38:16 51°19.788 3°5.135 23.484884 0.193458 1.14103  
2002-05-03 07:38:20 51°19.798 3°5.15 24.491059 0.193359 1.140456  
2002-05-03 07:38:25 51°19.81 3°5.172 24.429165 0.193458 1.14103  
2002-05-03 07:38:30 51°19.823 3°5.192 23.965415 0.193458 1.141089  
2002-05-03 07:38:35 51°19.835 3°5.213 23.998174 0.193458 1.141069  
2002-05-03 07:38:40 51°19.847 3°5.233 23.872454 0.193458 1.141108  
2002-05-03 07:38:46 51°19.861 3°5.258 23.872454 0.193458 1.141108  
2002-05-03 07:38:50 51°19.872 3°5.274 23.908971 0.193458 1.141128  
2002-05-03 07:38:55 51°19.884 3°5.296 23.404613 0.193458 1.141089  
2002-05-03 07:39:00 51°19.897 3°5.315 23.47051 0.193458 1.141148  
2002-05-03 07:39:05 51°19.908 3°5.337 23.786242 0.193458 1.141167  
2002-05-03 07:39:10 51°19.922 3°5.356 23.598046 0.193458 1.141148  
2002-05-03 07:39:15 51°19.933 3°5.378 23.598046 0.193458 1.141148  
2002-05-03 07:39:20 51°19.946 3°5.397 23.288211 0.193359 1.140613  
2002-05-03 07:39:26 51°19.961 3°5.422 23.635509 0.193359 1.140593  
2002-05-03 07:39:30 51°19.971 3°5.439 24.639686 0.193458 1.141206  
2002-05-03 07:39:35 51°19.982 3°5.46 25.19905 0.193359 1.140711  
2002-05-03 07:39:40 51°19.995 3°5.48 23.259961 0.193458 1.141246  
2002-05-03 07:39:46 51°20.01 3°5.505 23.259961 0.193458 1.141246  
2002-05-03 07:39:50 51°20.019 3°5.521 23.739335 0.193458 1.141343  
2002-05-03 07:39:55 51°20.031 3°5.542 23.95661 0.193359 1.140711  
2002-05-03 07:40:00 51°20.044 3°5.563 24.025258 0.193458 1.141304  
2002-05-03 07:40:05 51°20.056 3°5.583 23.651811 0.193458 1.141383  
2002-05-03 07:40:10 51°20.068 3°5.604 24.092885 0.193359 1.140691  
2002-05-03 07:40:15 51°20.081 3°5.623 24.092885 0.193359 1.140691  
2002-05-03 07:40:21 51°20.095 3°5.648 24.719512 0.193458 1.141343  
2002-05-03 07:40:26 51°20.109 3°5.667 23.055036 0.193458 1.141402  
2002-05-03 07:40:30 51°20.118 3°5.684 23.24473 0.193359 1.14073  
2002-05-03 07:40:35 51°20.131 3°5.703 23.628625 0.193458 1.141402  
2002-05-03 07:40:40 51°20.143 3°5.725 24.237484 0.193359 1.140809  
2002-05-03 07:40:46 51°20.158 3°5.748 24.237484 0.193359 1.140809  
2002-05-03 07:40:50 51°20.167 3°5.765 23.25192 0.193458 1.141402  
2002-05-03 07:40:55 51°20.18 3°5.785 23.319772 0.193458 1.141441  
2002-05-03 07:41:00 51°20.192 3°5.806 24.889334 0.193458 1.141422  
2002-05-03 07:41:06 51°20.207 3°5.831 23.827673 0.193458 1.141383  
2002-05-03 07:41:10 51°20.216 3°5.847 24.704774 0.193458 1.141461  
2002-05-03 07:41:15 51°20.229 3°5.867 24.704774 0.193458 1.141461  
2002-05-03 07:41:20 51°20.241 3°5.888 22.976496 0.193359 1.140789  
2002-05-03 07:41:25 51°20.254 3°5.908 23.393463 0.193458 1.141441  
2002-05-03 07:41:31 51°20.268 3°5.933 23.235953 0.193458 1.141481  
2002-05-03 07:41:36 51°20.28 3°5.953 24.780516 0.193458 1.141402  
2002-05-03 07:41:40 51°20.29 3°5.97 25.026854 0.193458 1.1415  
2002-05-03 07:41:45 51°20.303 3°5.99 25.026854 0.193458 1.1415  
2002-05-03 07:41:50 51°20.315 3°6.011 24.089178 0.193458 1.141461  
2002-05-03 07:41:56 51°20.33 3°6.035 24.061774 0.193458 1.1415  
2002-05-03 07:42:00 51°20.339 3°6.051 23.182225 0.193458 1.14152  
2002-05-03 07:42:06 51°20.354 3°6.076 24.312038 0.193458 1.141461  
2002-05-03 07:42:11 51°20.366 3°6.096 24.733452 0.193458 1.141559  
2002-05-03 07:42:15 51°20.376 3°6.112 24.733452 0.193458 1.141559  
2002-05-03 07:42:20 51°20.388 3°6.133 24.755189 0.193458 1.1415  
2002-05-03 07:42:25 51°20.4 3°6.153 24.196439 0.193458 1.14152  
2002-05-03 07:42:31 51°20.415 3°6.177 23.508964 0.193458 1.141559  
2002-05-03 07:42:36 51°20.427 3°6.199 23.855511 0.193458 1.14152  
2002-05-03 07:42:40 51°20.438 3°6.214 24.298627 0.193458 1.141559  
2002-05-03 07:42:45 51°20.449 3°6.235 24.298627 0.193458 1.141559  
2002-05-03 07:42:50 51°20.462 3°6.255 22.975332 0.193458 1.141559  
2002-05-03 07:42:55 51°20.474 3°6.276 24.642569 0.193458 1.141539  
2002-05-03 07:43:00 51°20.486 3°6.295 24.770788 0.193458 1.141598  
2002-05-03 07:43:06 51°20.5 3°6.321 23.645198 0.193458 1.141559  
2002-05-03 07:43:10 51°20.511 3°6.336 23.396781 0.193458 1.141618  
2002-05-03 07:43:16 51°20.525 3°6.362 23.396781 0.193458 1.141618  
2002-05-03 07:43:20 51°20.535 3°6.377 24.215744 0.193458 1.141618  
2002-05-03 07:43:26 51°20.549 3°6.403 23.398788 0.193458 1.141598  
2002-05-03 07:43:30 51°20.56 3°6.418 24.652731 0.193458 1.141657  
2002-05-03 07:43:35 51°20.571 3°6.439 24.063953 0.193458 1.141598  
2002-05-03 07:43:40 51°20.584 3°6.458 24.408053 0.193458 1.141657  
2002-05-03 07:43:46 51°20.598 3°6.484 24.408053 0.193458 1.141657  
2002-05-03 07:43:50 51°20.609 3°6.499 23.751775 0.193359 1.141063  
2002-05-03 07:43:55 51°20.62 3°6.52 24.256016 0.193458 1.141618  
2002-05-03 07:44:00 51°20.634 3°6.539 23.697815 0.193458 1.141696  
2002-05-03 07:44:06 51°20.647 3°6.565 23.188609 0.193458 1.141696  
2002-05-03 07:44:10 51°20.658 3°6.58 24.292569 0.193458 1.141677  
2002-05-03 07:44:16 51°20.672 3°6.605 24.292569 0.193458 1.141677  
2002-05-03 07:44:20 51°20.682 3°6.621 23.271169 0.193458 1.141755  
2002-05-03 07:44:26 51°20.697 3°6.646 25.2577 0.193458 1.141716  
2002-05-03 07:44:31 51°20.709 3°6.666 24.081535 0.193458 1.141755  
2002-05-03 07:44:36 51°20.721 3°6.686 22.469102 0.193458 1.141775  
2002-05-03 07:44:40 51°20.732 3°6.702 24.61469 0.193458 1.141755  
2002-05-03 07:44:46 51°20.746 3°6.727 24.61469 0.193458 1.141755  
2002-05-03 07:44:50 51°20.756 3°6.743 24.525595 0.193458 1.141814  
2002-05-03 07:44:55 51°20.767 3°6.764 22.792902 0.193458 1.141794  
2002-05-03 07:45:00 51°20.78 3°6.784 24.03023 0.193458 1.141814  
2002-05-03 07:45:06 51°20.795 3°6.809 24.345822 0.193458 1.141853  
2002-05-03 07:45:10 51°20.805 3°6.825 24.777375 0.193458 1.141834  
2002-05-03 07:45:16 51°20.82 3°6.849 24.777375 0.193458 1.141834  
2002-05-03 07:45:20 51°20.829 3°6.866 23.975367 0.193458 1.141873  
2002-05-03 07:45:25 51°20.842 3°6.886 24.004181 0.193458 1.141873  
2002-05-03 07:45:30 51°20.854 3°6.907 23.786396 0.193458 1.141834  
2002-05-03 07:45:35 51°20.867 3°6.927 22.200343 0.193458 1.141892  
2002-05-03 07:45:40 51°20.879 3°6.948 24.544699 0.193458 1.141892  
2002-05-03 07:45:45 51°20.892 3°6.967 24.544699 0.193458 1.141892  
2002-05-03 07:45:50 51°20.903 3°6.989 23.687786 0.193458 1.141912  
2002-05-03 07:45:55 51°20.916 3°7.008 23.132639 0.193458 1.141971  
2002-05-03 07:46:00 51°20.928 3°7.03 22.974711 0.193458 1.141951  
2002-05-03 07:46:06 51°20.943 3°7.054 24.488399 0.193458 1.141971  
2002-05-03 07:46:10 51°20.953 3°7.071 23.673529 0.193458 1.14201  
2002-05-03 07:46:16 51°20.968 3°7.095 23.673529 0.193458 1.14201  
2002-05-03 07:46:20 51°20.977 3°7.112 22.184924 0.193458 1.141991  
2002-05-03 07:46:25 51°20.991 3°7.131 22.913875 0.193458 1.14203  
2002-05-03 07:46:30 51°21.002 3°7.153 25.023761 0.193458 1.14203  
2002-05-03 07:46:35 51°21.015 3°7.173 22.667128 0.193458 1.14203  
2002-05-03 07:46:40 51°21.027 3°7.193 23.872837 0.193458 1.142069  
2002-05-03 07:46:46 51°21.042 3°7.219 23.872837 0.193458 1.142069  
2002-05-03 07:46:51 51°21.055 3°7.238 23.497561 0.193458 1.142049  
2002-05-03 07:46:56 51°21.067 3°7.26 22.865852 0.193458 1.142069  
2002-05-03 07:47:00 51°21.077 3°7.275 23.973568 0.193359 1.141514  
2002-05-03 07:47:06 51°21.092 3°7.3 24.603269 0.193458 1.142089  
2002-05-03 07:47:10 51°21.103 3°7.314 22.585353 0.193458 1.142148  
2002-05-03 07:47:15 51°21.116 3°7.335 22.585353 0.193458 1.142148  
2002-05-03 07:47:20 51°21.13 3°7.353 22.777689 0.193458 1.142167  
2002-05-03 07:47:26 51°21.145 3°7.377 25.165585 0.193458 1.142148  
2002-05-03 07:47:30 51°21.157 3°7.391 22.877744 0.193458 1.142187  
2002-05-03 07:47:35 51°21.17 3°7.41 23.952514 0.193458 1.142148  
2002-05-03 07:47:40 51°21.184 3°7.428 23.010134 0.193458 1.142187  
2002-05-03 07:47:46 51°21.2 3°7.451 23.010134 0.193458 1.142187  
2002-05-03 07:47:50 51°21.212 3°7.464 25.324681 0.193458 1.142187  
2002-05-03 07:47:55 51°21.225 3°7.483 24.924777 0.193458 1.142167  
2002-05-03 07:48:01 51°21.242 3°7.505 22.696741 0.193458 1.142226  
2002-05-03 07:48:06 51°21.256 3°7.524 22.729342 0.193458 1.142187  
2002-05-03 07:48:10 51°21.267 3°7.538 24.091929 0.193458 1.142246  
2002-05-03 07:48:15 51°21.281 3°7.557 24.091929 0.193458 1.142246  
2002-05-03 07:48:20 51°21.295 3°7.575 23.55552 0.193458 1.142265  
2002-05-03 07:48:25 51°21.308 3°7.594 25.82275 0.193458 1.142265  
2002-05-03 07:48:30 51°21.323 3°7.612 24.720838 0.193458 1.142344  
2002-05-03 07:48:35 51°21.336 3°7.632 24.312648 0.193458 1.142285  
2002-05-03 07:48:40 51°21.35 3°7.649 22.771774 0.193458 1.142344  
2002-05-03 07:48:45 51°21.364 3°7.669 22.771774 0.193458 1.142344  
2002-05-03 07:48:50 51°21.378 3°7.687 23.660038 0.193458 1.142344  
2002-05-03 07:48:55 51°21.391 3°7.707 22.869078 0.193458 1.142344  
2002-05-03 07:49:00 51°21.405 3°7.725 24.700265 0.193458 1.142403  
2002-05-03 07:49:06 51°21.42 3°7.749 24.22917 0.193458 1.142344  
2002-05-03 07:49:10 51°21.432 3°7.764 23.227291 0.193458 1.142422  
2002-05-03 07:49:16 51°21.448 3°7.788 23.227291 0.193458 1.142422  
2002-05-03 07:49:20 51°21.459 3°7.802 24.66983 0.193458 1.142403  
2002-05-03 07:49:26 51°21.475 3°7.826 24.204452 0.193458 1.142403  
2002-05-03 07:49:30 51°21.486 3°7.841 24.546597 0.193458 1.142481  
2002-05-03 07:49:35 51°21.5 3°7.86 24.457876 0.193458 1.142442  
2002-05-03 07:49:40 51°21.513 3°7.878 24.3966 0.193458 1.142501  
2002-05-03 07:49:45 51°21.527 3°7.897 24.3966 0.193458 1.142501  
2002-05-03 07:49:51 51°21.543 3°7.919 24.401014 0.193458 1.142462  
2002-05-03 07:49:55 51°21.554 3°7.934 23.997715 0.193458 1.142481  
2002-05-03 07:50:00 51°21.567 3°7.954 24.747048 0.193458 1.142521  
2002-05-03 07:50:06 51°21.584 3°7.977 24.370873 0.193458 1.142462  
2002-05-03 07:50:10 51°21.595 3°7.992 23.338385 0.193458 1.14256  
2002-05-03 07:50:16 51°21.612 3°8.015 23.338385 0.193458 1.14256  
2002-05-03 07:50:20 51°21.622 3°8.03 23.30776 0.193458 1.142521  
2002-05-03 07:50:26 51°21.638 3°8.053 23.183772 0.193458 1.14254  
2002-05-03 07:50:31 51°21.652 3°8.072 22.581412 0.193458 1.14258  
2002-05-03 07:50:35 51°21.663 3°8.087 23.565759 0.193458 1.14256  
2002-05-03 07:50:40 51°21.676 3°8.107 24.040249 0.193458 1.142619  
2002-05-03 07:50:45 51°21.69 3°8.125 24.040249 0.193458 1.142619  
2002-05-03 07:50:50 51°21.703 3°8.145 23.094952 0.193458 1.14256  
2002-05-03 07:50:55 51°21.717 3°8.163 22.843967 0.193458 1.142619  
2002-05-03 07:51:00 51°21.73 3°8.184 23.605163 0.193458 1.142619  
2002-05-03 07:51:05 51°21.745 3°8.202 23.575189 0.193458 1.142599  
2002-05-03 07:51:10 51°21.758 3°8.222 25.169124 0.193458 1.142638  
2002-05-03 07:51:16 51°21.774 3°8.244 25.169124 0.193458 1.142638  
2002-05-03 07:51:20 51°21.785 3°8.26 24.112599 0.193458 1.142599  
2002-05-03 07:51:26 51°21.802 3°8.281 23.897324 0.193458 1.142638  
2002-05-03 07:51:30 51°21.812 3°8.298 23.960975 0.193458 1.142619  
2002-05-03 07:51:36 51°21.829 3°8.319 24.182244 0.193458 1.142619  
2002-05-03 07:51:40 51°21.84 3°8.335 25.143027 0.193458 1.142658  
2002-05-03 07:51:46 51°21.857 3°8.356 25.143027 0.193458 1.142658  
2002-05-03 07:51:50 51°21.867 3°8.373 23.078523 0.193458 1.142638  
2002-05-03 07:51:56 51°21.884 3°8.394 24.343004 0.193458 1.142678  
2002-05-03 07:52:00 51°21.894 3°8.411 24.744927 0.193458 1.142638  
2002-05-03 07:52:05 51°21.909 3°8.428 24.720611 0.193458 1.142678  
2002-05-03 07:52:10 51°21.922 3°8.449 22.159965 0.193458 1.142678  
2002-05-03 07:52:15 51°21.936 3°8.467 22.159965 0.193458 1.142678  
2002-05-03 07:52:20 51°21.949 3°8.487 23.6894 0.193458 1.142658  
2002-05-03 07:52:25 51°21.963 3°8.505 24.847975 0.193458 1.142697  
2002-05-03 07:52:31 51°21.979 3°8.53 24.874933 0.193458 1.142678  
2002-05-03 07:52:35 51°21.99 3°8.544 23.094255 0.193458 1.142717  
2002-05-03 07:52:40 51°22.003 3°8.564 24.693633 0.193458 1.142717  
2002-05-03 07:52:45 51°22.017 3°8.583 24.693633 0.193458 1.142717  
2002-05-03 07:52:51 51°22.033 3°8.607 24.47943 0.193458 1.142717  
2002-05-03 07:52:55 51°22.044 3°8.621 24.35614 0.193458 1.142756  
2002-05-03 07:53:00 51°22.058 3°8.641 24.074541 0.193458 1.142717  
2002-05-03 07:53:05 51°22.072 3°8.659 22.014905 0.193458 1.142737  
2002-05-03 07:53:11 51°22.089 3°8.682 24.671233 0.193458 1.142717  
2002-05-03 07:53:16 51°22.103 3°8.699 24.671233 0.193458 1.142717  
2002-05-03 07:53:20 51°22.114 3°8.714 23.832237 0.193458 1.142737  
2002-05-03 07:53:25 51°22.128 3°8.732 23.011685 0.193458 1.142756  
2002-05-03 07:53:30 51°22.142 3°8.751 23.044298 0.193458 1.142717  
2002-05-03 07:53:36 51°22.159 3°8.772 22.249322 0.193458 1.142815  
2002-05-03 07:53:40 51°22.171 3°8.786 24.18045 0.193458 1.142756  
2002-05-03 07:53:46 51°22.188 3°8.808 24.18045 0.193458 1.142756  
2002-05-03 07:53:50 51°22.199 3°8.822 24.155142 0.193458 1.142815  
2002-05-03 07:53:56 51°22.215 3°8.844 22.283459 0.193458 1.142776  
2002-05-03 07:54:00 51°22.227 3°8.858 23.46681 0.193458 1.142796  
2002-05-03 07:54:06 51°22.244 3°8.88 24.473158 0.193458 1.142815  
2002-05-03 07:54:10 51°22.256 3°8.893 23.180832 0.193458 1.142796  
2002-05-03 07:54:16 51°22.272 3°8.916 23.180832 0.193458 1.142796  
2002-05-03 07:54:20 51°22.285 3°8.928 22.069553 0.193458 1.142835  
2002-05-03 07:54:26 51°22.301 3°8.952 22.163929 0.193458 1.142796  
2002-05-03 07:54:30 51°22.313 3°8.964 25.096724 0.193458 1.142855  
2002-05-03 07:54:35 51°22.327 3°8.984 22.489109 0.193458 1.142835  
2002-05-03 07:54:40 51°22.342 3°9 21.784055 0.193458 1.142835  
2002-05-03 07:54:46 51°22.358 3°9.023 21.784055 0.193458 1.142835  
2002-05-03 07:54:50 51°22.37 3°9.036 23.920003 0.193458 1.142874  
2002-05-03 07:54:55 51°22.384 3°9.055 21.753469 0.193458 1.142855  
2002-05-03 07:55:00 51°22.398 3°9.072 24.517276 0.193458 1.142894  
2002-05-03 07:55:06 51°22.414 3°9.095 23.641546 0.193458 1.142874  
2002-05-03 07:55:10 51°22.426 3°9.108 23.487851 0.193458 1.142914  
2002-05-03 07:55:15 51°22.44 3°9.127 23.487851 0.193458 1.142914  
2002-05-03 07:55:20 51°22.455 3°9.145 25.573502 0.193458 1.142933  
2002-05-03 07:55:25 51°22.469 3°9.163 23.487196 0.193458 1.142894  
2002-05-03 07:55:30 51°22.483 3°9.181 24.367942 0.193458 1.142973  
2002-05-03 07:55:36 51°22.5 3°9.203 24.399074 0.193458 1.142894  
2002-05-03 07:55:40 51°22.51 3°9.217 24.933994 0.193458 1.142992  
2002-05-03 07:55:46 51°22.526 3°9.234 24.933994 0.193458 1.142992  
2002-05-03 07:55:51 51°22.538 3°9.246 24.278087 0.193458 1.143012  
2002-05-03 07:55:55 51°22.547 3°9.255 24.187892 0.193458 1.143012  
2002-05-03 07:56:00 51°22.558 3°9.264 23.813789 0.193458 1.143032  
2002-05-03 07:56:06 51°22.57 3°9.274 24.285709 0.193458 1.143032  
2002-05-03 07:56:11 51°22.58 3°9.279 24.226005 0.193458 1.143051  
2002-05-03 07:56:16 51°22.589 3°9.284 24.226005 0.193458 1.143051  
2002-05-03 07:56:20 51°22.596 3°9.286 24.85013 0.193458 1.143071  
2002-05-03 07:56:26 51°22.607 3°9.289 23.763138 0.193458 1.143071  
2002-05-03 07:56:30 51°22.613 3°9.291 23.76594 0.193458 1.143091  
2002-05-03 07:56:35 51°22.621 3°9.292 23.006565 0.193458 1.143091  
2002-05-03 07:56:40 51°22.628 3°9.292 22.59421 0.193458 1.143071  
2002-05-03 07:56:46 51°22.636 3°9.292 22.59421 0.193458 1.143071  
2002-05-03 07:56:50 51°22.642 3°9.292 23.737952 0.193458 1.14311  
2002-05-03 07:56:55 51°22.648 3°9.29 24.739853 0.193458 1.14311  
2002-05-03 07:57:00 51°22.654 3°9.289 25.051295 0.193458 1.14311  
2002-05-03 07:57:06 51°22.661 3°9.287 24.120277 0.193458 1.14313  
2002-05-03 07:57:10 51°22.665 3°9.285 25.762422 0.193458 1.14313  
2002-05-03 07:57:15 51°22.671 3°9.283 25.762422 0.193458 1.14313  
2002-05-03 07:57:21 51°22.677 3°9.28 24.308533 0.193458 1.14313  
2002-05-03 07:57:26 51°22.682 3°9.278 24.063494 0.193458 1.14315  
2002-05-03 07:57:31 51°22.687 3°9.276 23.780179 0.193458 1.14313  
2002-05-03 07:57:35 51°22.692 3°9.274 22.06464 0.193458 1.14311  
2002-05-03 07:57:40 51°22.698 3°9.273 23.185011 0.193458 1.143071  
2002-05-03 07:57:46 51°22.705 3°9.273 23.185011 0.193458 1.143071  
2002-05-03 07:57:50 51°22.71 3°9.274 23.213368 0.193458 1.143071  
2002-05-03 07:57:56 51°22.717 3°9.276 22.228778 0.226472 1.308971  
2002-05-03 07:58:00 51°22.721 3°9.278 21.488892 0.193458 1.14311  
2002-05-03 07:58:06 51°22.728 3°9.283 22.297093 0.193458 1.143169  
2002-05-03 07:58:10 51°22.732 3°9.287 22.587148 0.193458 1.143189  
2002-05-03 07:58:15 51°22.737 3°9.293 22.587148 0.193458 1.143189  
2002-05-03 07:58:20 51°22.741 3°9.299 23.035962 0.193458 1.143209  
2002-05-03 07:58:26 51°22.746 3°9.306 21.041823 0.193458 1.143268  
2002-05-03 07:58:30 51°22.748 3°9.31 23.579076 0.193458 1.143327  
2002-05-03 07:58:35 51°22.751 3°9.315 23.329504 0.193458 1.143366  
2002-05-03 07:58:40 51°22.752 3°9.318 24.056575 0.193359 1.142732  
2002-05-03 07:58:46 51°22.754 3°9.32 24.056575 0.193359 1.142732  
2002-05-03 07:58:50 51°22.754 3°9.321 23.11374 0.193458 1.143346  
2002-05-03 07:58:55 51°22.755 3°9.321 23.243067 0.193359 1.142732  
2002-05-03 07:59:00 51°22.755 3°9.32 21.610941 0.193458 1.143366  
2002-05-03 07:59:06 51°22.755 3°9.32 25.091259 0.193359 1.142771  
2002-05-03 07:59:10 51°22.756 3°9.32 22.802939 0.193458 1.143386  
2002-05-03 07:59:15 51°22.755 3°9.321 22.802939 0.193458 1.143386  
2002-05-03 07:59:20 51°22.755 3°9.323 22.325216 0.193359 1.142811  
2002-05-03 07:59:25 51°22.755 3°9.326 22.614533 0.193458 1.143405  
2002-05-03 07:59:30 51°22.753 3°9.33 23.629625 0.193458 1.143386  
2002-05-03 07:59:36 51°22.75 3°9.336 23.44102 0.193458 1.143386  
2002-05-03 07:59:40 51°22.748 3°9.34 22.425982 0.193359 1.142791  
2002-05-03 07:59:46 51°22.742 3°9.346 22.425982 0.193359 1.142791  
2002-05-03 07:59:51 51°22.737 3°9.351 22.715711 0.193458 1.143464  
2002-05-03 07:59:55 51°22.732 3°9.355 22.784148 0.193458 1.143504  
2002-05-03 08:00:00 51°22.727 3°9.36 22.81527 0.193458 1.143543  
2002-05-03 08:00:06 51°22.721 3°9.365 22.204815 0.193458 1.143563  
2002-05-03 08:00:11 51°22.716 3°9.369 25.416559 0.193359 1.142968  
2002-05-03 08:00:16 51°22.713 3°9.372 25.416559 0.193359 1.142968  
2002-05-03 08:00:20 51°22.71 3°9.374 22.408265 0.193359 1.142968  
2002-05-03 08:00:26 51°22.707 3°9.375 23.80416 0.193359 1.142948  
2002-05-03 08:00:30 51°22.705 3°9.376 22.412763 0.193359 1.142948  
2002-05-03 08:00:36 51°22.703 3°9.375 22.157649 0.193359 1.142988  
2002-05-03 08:00:40 51°22.703 3°9.375 22.444789 0.193359 1.143007  
2002-05-03 08:00:46 51°22.702 3°9.374 22.444789 0.193359 1.143007  
2002-05-03 08:00:50 51°22.702 3°9.374 22.415931 0.193359 1.143047  
2002-05-03 08:00:55 51°22.701 3°9.373 23.121408 0.193359 1.143066  
2002-05-03 08:01:00 51°22.701 3°9.372 21.258754 0.193359 1.143066  
2002-05-03 08:01:06 51°22.701 3°9.371 22.261121 0.193359 1.143106  
2002-05-03 08:01:10 51°22.7 3°9.37 23.412906 0.193359 1.143086  
2002-05-03 08:01:15 51°22.7 3°9.369 23.412906 0.193359 1.143086  
2002-05-03 08:01:20 51°22.699 3°9.368 23.379765 0.193359 1.143106  
2002-05-03 08:01:26 51°22.699 3°9.367 22.234699 0.193359 1.143106  
2002-05-03 08:01:31 51°22.698 3°9.366 21.720461 0.193359 1.143125  
2002-05-03 08:01:35 51°22.698 3°9.365 21.787054 0.193359 1.143145  
2002-05-03 08:01:40 51°22.697 3°9.364 21.660248 0.193359 1.143145  
2002-05-03 08:01:46 51°22.697 3°9.363 21.660248 0.193359 1.143145  
2002-05-03 08:01:51 51°22.696 3°9.361 22.786794 0.193359 1.143125  
2002-05-03 08:01:56 51°22.696 3°9.361 21.469831 0.193359 1.143145  
2002-05-03 08:02:00 51°22.695 3°9.36 23.358731 0.193359 1.143125  
2002-05-03 08:02:05 51°22.695 3°9.359 22.280598 0.193359 1.143145  
2002-05-03 08:02:10 51°22.694 3°9.357 21.896816 0.193359 1.143125  
2002-05-03 08:02:15 51°22.694 3°9.356 21.896816 0.193359 1.143125  
2002-05-03 08:02:20 51°22.693 3°9.355 23.112384 0.193359 1.143106  
2002-05-03 08:02:26 51°22.693 3°9.354 22.958294 0.193359 1.143125  
2002-05-03 08:02:30 51°22.692 3°9.353 22.9581 0.193359 1.143125  
2002-05-03 08:02:36 51°22.692 3°9.351 22.227131 0.193359 1.143125  
2002-05-03 08:02:40 51°22.691 3°9.35 22.129932 0.193359 1.143145  
2002-05-03 08:02:46 51°22.691 3°9.349 22.129932 0.193359 1.143145  
2002-05-03 08:02:50 51°22.69 3°9.348 22.099454 0.193359 1.143106  
2002-05-03 08:02:55 51°22.69 3°9.347 22.262689 0.193359 1.143106  
2002-05-03 08:03:00 51°22.689 3°9.345 22.967842 0.193359 1.143106  
2002-05-03 08:03:06 51°22.689 3°9.344 22.619408 0.193359 1.143106  
2002-05-03 08:03:10 51°22.688 3°9.343 22.879415 0.193359 1.143106  
2002-05-03 08:03:15 51°22.688 3°9.342 22.879415 0.193359 1.143106  
2002-05-03 08:03:20 51°22.687 3°9.341 23.069726 0.193359 1.143125  
2002-05-03 08:03:25 51°22.687 3°9.339 22.209914 0.193359 1.143125  
2002-05-03 08:03:30 51°22.686 3°9.338 22.147679 0.193359 1.143106  
2002-05-03 08:03:36 51°22.686 3°9.336 22.310216 0.193359 1.143125  
2002-05-03 08:03:40 51°22.685 3°9.335 22.662295 0.193359 1.143106  
2002-05-03 08:03:45 51°22.685 3°9.334 22.662295 0.193359 1.143106  
2002-05-03 08:03:50 51°22.684 3°9.332 22.15396 0.193359 1.143086  
2002-05-03 08:03:55 51°22.683 3°9.331 22.572788 0.193359 1.143086  
2002-05-03 08:04:01 51°22.683 3°9.329 22.348434 0.193359 1.143086  
2002-05-03 08:04:06 51°22.682 3°9.328 22.992172 0.193359 1.143086  
2002-05-03 08:04:11 51°22.681 3°9.326 22.99419 0.193359 1.143106  
2002-05-03 08:04:16 51°22.681 3°9.325 22.99419 0.193359 1.143106  
2002-05-03 08:04:20 51°22.68 3°9.324 22.195596 0.193359 1.143106  
2002-05-03 08:04:25 51°22.679 3°9.322 21.746916 0.193359 1.143125  
2002-05-03 08:04:30 51°22.679 3°9.321 23.314519 0.193359 1.143125  
2002-05-03 08:04:35 51°22.678 3°9.32 23.508617 0.193359 1.143125  
2002-05-03 08:04:40 51°22.677 3°9.318 23.095494 0.193359 1.143125  
2002-05-03 08:04:46 51°22.677 3°9.316 23.095494 0.193359 1.143125  
2002-05-03 08:04:51 51°22.676 3°9.315 22.875024 0.193359 1.143145  
2002-05-03 08:04:55 51°22.676 3°9.314 22.784148 0.193359 1.143125  
2002-05-03 08:05:00 51°22.675 3°9.312 22.400755 0.193359 1.143145  
2002-05-03 08:05:06 51°22.674 3°9.31 22.307239 0.193359 1.143145  
2002-05-03 08:05:10 51°22.674 3°9.309 23.075811 0.193359 1.143145  
2002-05-03 08:05:16 51°22.673 3°9.307 23.075811 0.193359 1.143145  
2002-05-03 08:05:20 51°22.672 3°9.306 23.678794 0.193359 1.143165  
2002-05-03 08:05:25 51°22.671 3°9.304 22.183826 0.193359 1.143145  
2002-05-03 08:05:31 51°22.671 3°9.303 22.858079 0.193359 1.143185  
2002-05-03 08:05:35 51°22.67 3°9.301 22.5715 0.193359 1.143185  
2002-05-03 08:05:40 51°22.669 3°9.3 22.607395 0.193359 1.143185  
2002-05-03 08:05:46 51°22.669 3°9.298 22.607395 0.193359 1.143185  
2002-05-03 08:05:51 51°22.668 3°9.296 22.925409 0.193359 1.143185  
2002-05-03 08:05:56 51°22.667 3°9.294 23.056819 0.193359 1.143204  
2002-05-03 08:06:00 51°22.667 3°9.293 22.613246 0.193359 1.143224  
2002-05-03 08:06:06 51°22.666 3°9.291 23.101577 0.193359 1.143204  
2002-05-03 08:06:10 51°22.665 3°9.29 22.519733 0.193359 1.143244  
2002-05-03 08:06:15 51°22.665 3°9.288 22.519733 0.193359 1.143244  
2002-05-03 08:06:20 51°22.664 3°9.287 22.681468 0.193359 1.143244  
2002-05-03 08:06:26 51°22.663 3°9.285 21.976626 0.193359 1.143244  
2002-05-03 08:06:31 51°22.662 3°9.283 22.963844 0.19326 1.142649  
2002-05-03 08:06:36 51°22.662 3°9.281 21.948366 0.19326 1.142649  
2002-05-03 08:06:40 51°22.661 3°9.28 22.303909 0.193359 1.143283  
2002-05-03 08:06:46 51°22.66 3°9.278 22.303909 0.193359 1.143283  
2002-05-03 08:06:50 51°22.659 3°9.277 23.040421 0.193359 1.143303  
2002-05-03 08:06:55 51°22.659 3°9.275 22.851742 0.19326 1.142708  
2002-05-03 08:07:00 51°22.658 3°9.273 22.405136 0.193359 1.143342  
2002-05-03 08:07:06 51°22.657 3°9.271 22.854464 0.193359 1.143342  
2002-05-03 08:07:11 51°22.656 3°9.27 22.665452 0.193359 1.143362  
2002-05-03 08:07:15 51°22.656 3°9.268 22.665452 0.193359 1.143362  
2002-05-03 08:07:20 51°22.655 3°9.266 22.668686 0.19326 1.142767  
2002-05-03 08:07:26 51°22.654 3°9.264 22.572632 0.19326 1.142767  
2002-05-03 08:07:30 51°22.654 3°9.263 22.671298 0.19326 1.142787  
2002-05-03 08:07:35 51°22.653 3°9.261 22.576261 0.19326 1.142806  
2002-05-03 08:07:41 51°22.652 3°9.259 22.130717 0.19326 1.142826  
2002-05-03 08:07:46 51°22.652 3°9.257 22.130717 0.19326 1.142826  
2002-05-03 08:07:50 51°22.651 3°9.256 21.939153 0.19326 1.142826  
2002-05-03 08:07:55 51°22.65 3°9.254 22.57989 0.19326 1.142846  
2002-05-03 08:08:00 51°22.65 3°9.252 23.633009 0.19326 1.142846  
2002-05-03 08:08:05 51°22.649 3°9.251 22.583207 0.19326 1.142865  
2002-05-03 08:08:10 51°22.648 3°9.249 22.072029 0.19326 1.142885  
2002-05-03 08:08:16 51°22.647 3°9.247 22.072029 0.19326 1.142885  
2002-05-03 08:08:20 51°22.647 3°9.246 22.491726 0.19326 1.142885  
2002-05-03 08:08:26 51°22.646 3°9.243 22.525787 0.19326 1.142885  
2002-05-03 08:08:31 51°22.645 3°9.241 22.046912 0.19326 1.142905  
2002-05-03 08:08:35 51°22.644 3°9.24 22.559792 0.19326 1.142905  
2002-05-03 08:08:40 51°22.644 3°9.238 23.107155 0.19326 1.142924  
2002-05-03 08:08:46 51°22.643 3°9.236 23.107155 0.19326 1.142924  
2002-05-03 08:08:50 51°22.642 3°9.235 22.407131 0.19326 1.142924  
2002-05-03 08:08:56 51°22.641 3°9.233 22.504891 0.19326 1.142924  
2002-05-03 08:09:00 51°22.64 3°9.231 23.776456 0.19326 1.142944  
2002-05-03 08:09:05 51°22.64 3°9.229 22.762978 0.19326 1.142905  
2002-05-03 08:09:10 51°22.639 3°9.228 22.351839 0.19326 1.142924  
2002-05-03 08:09:15 51°22.638 3°9.226 22.351839 0.19326 1.142924  
2002-05-03 08:09:21 51°22.637 3°9.224 21.900992 0.19326 1.142944